Location: ???????
(55.4362°N, 38.1183°E)
Time: 13:41:04
(UTC+00:00)

Cosmos 2219 Rocket - Pass Details

Date: 21 October 2021
Orbit: 826 x 848 km, 71.0° (Epoch: 01 December)

Event Time Altitude Azimuth Distance (km) Brightness Sun altitude
Exits shadow 22:43:17 17° 6° (N) 2,036 4.6 -42.1°
Drops below altitude 10° 22:46:32 10° 42° (NE) 2,466 5.2 -41.9°
Sets 22:49:58 0° 63° (ENE) 3,404 6.0 -41.6°
